Вернуться в каталог

ONEWEB-0381

АктивенСвязьPO
NORAD 49307·PAYLOAD·🇬🇧 United Kingdom

Запущен Oct 14, 2021 с Vostochny Cosmodrome

Loading…

Ближайшие Пролёты (ближайшие 24 часа)

TLE

СвежийSource: CelesTrak SupGP

Эпоха: Sep 14, 2026, 20:43 UTC

1 49307C 21090AE  26257.86336065  .00003100  00000+0  76330-2 0  2575
2 49307  87.9136 256.5524 0002149  96.3945 303.4924 13.20766967    13

Отслеживайте ONEWEB-0381 в реальном времени с AllMySat

Download on the App Store